Find Starlink 11280

NORAD ID: 61245 Int'l Des: 2024-175 Owner: SPXS Country: US Constellation: starlink operational
別名: STARLINK-11280 [DTC] celestrak
LEOCIRCULAR

現在のビュー

3D地球を読み込み中...

About Starlink 11280

Starlink 11280 (NORAD 61245) is a starlink constellation satellite (v2 mini d2c) launched Sep 25, 2024 by SPXS of US. It operates in LEO, CIRCULAR orbit with a mass of 960.00 kg.

次回通過

Passes for default location (London). Set your location on the main map for personalized predictions.

高度履歴

Loading altitude history...

軌道要素

1 61245U 24175C 26263.48715722 -.00008413 00000-0 -64641-4 0 9995
2 61245 53.1583 175.8477 0000230 266.6813 93.4178 15.69720800113961
Epoch: Sep 20, 2026 • Age: 20 hours

現在のステータス

高度 376.1 km
遠地点 / 近地点 N/A
速度 7.68 km/s
衛星直下点 -48.26°S, 6.04°E
打ち上げ日 Sep 25, 2024
運用期間 1.9 years
タイプ internet

技術仕様

分類 Payload
質量 960.00 kg
乾燥質量 910.00 kg
長さ 0.30 m
スパン 29.00 m
形状 ? Box + pan
製造者 SPXS
バスタイプ Starlink V2MD
フェーズステータス In Orbit
所有者/国 SPXS/US

Most Searched